User: anonymous   Login
Location: Unspecified
(0.0000°N, 0.0000°E)
Time: 20:14:51
(UTC+00:00)
Language:

TBA - TO BE ASSIGNED - Orbit

View from above orbital plane
View from above orbital plane
View from above satellite
View from above satellite

Ground track
Ground track

The orbit is defined by the following mean orbital elements,

1 69021U          26145.65672672 +.00000000 +00000-0 +39712-3 0 00005
2 69021  97.4052  43.8540 0006634  73.7288 286.4676 15.19667187    05
Epoch (UTC): 25 May 2026 15:45:41
Eccentricity: 0.0006634
inclination: 97.4052°
perigee height: 502 km
apogee height: 511 km
right ascension of ascending node: 43.8540°
argument of perigee: 73.7288°
revolutions per day: 15.19667187
mean anomaly at epoch: 286.4676°

The dashed part of the orbit path shows where the satellite is in the earth's shadow,  

DLR